Location: Cluj-Napoca
(46.7712°N, 23.6236°E)
Time: 07:00:36
(UTC+02:00)

ISS - Pass Details

Date: 26 January 2021
Orbit: 417 x 422 km, 51.6° (Epoch: 08 March)

Event Time Altitude Azimuth Distance (km) Brightness Sun altitude
Rises 18:11:33 0° 263° (W) 2,368 2.1 -9.0°
Reaches altitude 10° 18:13:42 10° 270° (W) 1,506 0.5 -9.4°
Maximum altitude 18:16:58 46° 345° (NNW) 579 -3.1 -9.9°
Enters shadow 18:19:37 15° 56° (ENE) 1,263 -1.9 -10.3°
